WZZ2039 EPKK-EYVI

Flight info

Callsign WZZ2039
Flight time N/A
Altitude 35000
Route POBOK M985 KOTEK DCT EVODO DCT OFEDE DCT LIZUP DCT DIMTA
Aircraft A321/M-SDE3FGHIRWY/LB1

Departure

Time N/A
Airport Kraków John Paul II International Airport (EPKK)

Arrival

Time 2026-05-03 21:06
Airport Vilnius International Airport (EYVI)
Time Latitude Longitude Altitude Speed Heading
2026-05-03 20:15 50.99443 20.58132 27382 ft 449 kts 30°
2026-05-03 20:15 51.02132 20.60718 27869 ft 451 kts 30°
2026-05-03 20:15 51.04828 20.63315 28346 ft 454 kts 30°
2026-05-03 20:15 51.07542 20.65930 28811 ft 457 kts 30°
2026-05-03 20:16 51.10269 20.68561 29279 ft 458 kts 30°
2026-05-03 20:16 51.12961 20.71160 29904 ft 456 kts 30°
2026-05-03 20:16 51.15688 20.73793 30481 ft 454 kts 30°
2026-05-03 20:16 51.18392 20.76405 31018 ft 452 kts 30°
2026-05-03 20:17 51.21081 20.79013 31546 ft 451 kts 30°
2026-05-03 20:17 51.23723 20.81582 32069 ft 449 kts 30°
2026-05-03 20:17 51.26390 20.84181 32597 ft 448 kts 30°
2026-05-03 20:17 51.29048 20.86776 33125 ft 446 kts 30°
2026-05-03 20:18 51.31690 20.89354 33651 ft 445 kts 30°
2026-05-03 20:18 51.34335 20.91936 34149 ft 443 kts 30°
2026-05-03 20:18 51.36938 20.94477 34578 ft 442 kts 30°
2026-05-03 20:18 51.39564 20.97048 35002 ft 442 kts 30°
2026-05-03 20:19 51.42185 20.99617 35416 ft 441 kts 30°
2026-05-03 20:19 51.44815 21.02201 35825 ft 441 kts 30°
2026-05-03 20:19 51.47441 21.04783 36017 ft 442 kts 30°
2026-05-03 20:20 51.52626 21.09907 36054 ft 439 kts 30°
2026-05-03 20:20 51.57840 21.15061 36046 ft 439 kts 30°
2026-05-03 20:21 51.63054 21.20211 36044 ft 439 kts 30°
2026-05-03 20:21 51.68269 21.25382 36034 ft 439 kts 30°
2026-05-03 20:22 51.73446 21.30547 36033 ft 439 kts 30°
2026-05-03 20:22 51.78652 21.35762 36036 ft 440 kts 30°
2026-05-03 20:23 51.83862 21.40986 36041 ft 440 kts 30°
2026-05-03 20:23 51.89038 21.46179 36033 ft 440 kts 31°
2026-05-03 20:24 51.94244 21.51418 36034 ft 440 kts 31°
2026-05-03 20:24 51.99452 21.56674 36043 ft 440 kts 31°
2026-05-03 20:25 52.04655 21.61942 36038 ft 440 kts 31°
2026-05-03 20:25 52.09828 21.67189 36037 ft 440 kts 31°
2026-05-03 20:26 52.15021 21.72488 36038 ft 440 kts 31°
2026-05-03 20:26 52.20188 21.77771 36039 ft 440 kts 31°
2026-05-03 20:27 52.25383 21.83098 36043 ft 440 kts 31°
2026-05-03 20:27 52.30627 21.88480 36029 ft 449 kts 31°
2026-05-03 20:28 52.35896 21.93899 35300 ft 449 kts 31°
2026-05-03 20:28 52.38518 21.96605 35057 ft 450 kts 31°
2026-05-03 20:28 52.41172 21.99357 35005 ft 452 kts 31°
2026-05-03 20:29 52.46505 22.04894 35021 ft 453 kts 31°
2026-05-03 20:29 52.51851 22.10441 35023 ft 454 kts 31°
2026-05-03 20:30 52.57163 22.15968 35015 ft 454 kts 31°
2026-05-03 20:30 52.62501 22.21548 35018 ft 454 kts 31°
2026-05-03 20:31 52.67824 22.27127 35025 ft 454 kts 31°
2026-05-03 20:31 52.73126 22.32701 35023 ft 454 kts 31°
2026-05-03 20:32 52.78472 22.38330 35027 ft 454 kts 31°
2026-05-03 20:32 52.83770 22.43929 35026 ft 454 kts 32°
2026-05-03 20:33 52.89014 22.49499 35004 ft 442 kts 32°
2026-05-03 20:33 52.91593 22.52243 34763 ft 441 kts 32°
2026-05-03 20:33 52.94185 22.54998 34519 ft 440 kts 32°
2026-05-03 20:33 52.96765 22.57745 34278 ft 440 kts 32°
2026-05-03 20:34 52.98470 22.59564 34122 ft 440 kts 32°
2026-05-03 20:34 53.01040 22.62311 33861 ft 440 kts 32°
2026-05-03 20:34 53.04472 22.65979 33493 ft 441 kts 32°
2026-05-03 20:34 53.06213 22.67843 33312 ft 442 kts 32°
2026-05-03 20:35 53.08778 22.70598 33041 ft 443 kts 32°
2026-05-03 20:35 53.11370 22.73388 32779 ft 443 kts 32°
2026-05-03 20:35 53.13957 22.76173 32515 ft 444 kts 32°
2026-05-03 20:35 53.17417 22.79896 32169 ft 446 kts 32°
2026-05-03 20:36 53.19179 22.81793 31990 ft 446 kts 32°
2026-05-03 20:36 53.21795 22.84615 31740 ft 447 kts 32°
2026-05-03 20:36 53.24382 22.87415 31477 ft 448 kts 32°
2026-05-03 20:36 53.27003 22.90260 31224 ft 449 kts 32°
2026-05-03 20:37 53.29734 22.92799 30975 ft 449 kts 24°
2026-05-03 20:37 53.32666 22.94621 30726 ft 449 kts 17°
2026-05-03 20:37 53.35630 22.96175 30481 ft 451 kts 17°
2026-05-03 20:37 53.38634 22.97760 30239 ft 452 kts 17°
2026-05-03 20:38 53.41628 22.99350 29982 ft 450 kts 17°
2026-05-03 20:38 53.44585 23.00928 29649 ft 438 kts 17°
2026-05-03 20:38 53.47469 23.02472 29140 ft 431 kts 17°
2026-05-03 20:38 53.50281 23.03979 28622 ft 424 kts 17°
2026-05-03 20:39 53.53081 23.05476 28080 ft 419 kts 17°
2026-05-03 20:39 53.55846 23.06952 27547 ft 414 kts 16°
2026-05-03 20:39 53.58584 23.08412 27020 ft 409 kts 16°
2026-05-03 20:39 53.61248 23.09835 26516 ft 405 kts 16°
2026-05-03 20:40 53.63929 23.11274 26010 ft 401 kts 16°
2026-05-03 20:40 53.66582 23.12704 25512 ft 398 kts 16°
2026-05-03 20:40 53.69216 23.14122 25024 ft 395 kts 16°
2026-05-03 20:40 53.71835 23.15532 24544 ft 393 kts 15°
2026-05-03 20:41 53.74432 23.16931 24077 ft 391 kts 15°
2026-05-03 20:41 53.76994 23.18312 23619 ft 390 kts 15°
2026-05-03 20:41 53.79579 23.19709 23074 ft 388 kts 15°
2026-05-03 20:41 53.82147 23.21103 22523 ft 386 kts 15°
2026-05-03 20:42 53.84703 23.22492 21996 ft 384 kts 15°
2026-05-03 20:42 53.87208 23.23850 21480 ft 381 kts 15°
2026-05-03 20:42 53.89733 23.25224 20959 ft 379 kts 15°
2026-05-03 20:42 53.92231 23.26589 20454 ft 376 kts 15°
2026-05-03 20:43 53.94723 23.27954 19957 ft 373 kts 15°
2026-05-03 20:43 53.97176 23.29357 19469 ft 371 kts 19°
2026-05-03 20:43 53.99499 23.31326 18976 ft 372 kts 28°
2026-05-03 20:43 54.01565 23.33880 18526 ft 372 kts 38°
2026-05-03 20:44 54.03390 23.37013 18011 ft 372 kts 47°
2026-05-03 20:44 54.04881 23.40574 17478 ft 372 kts 57°
2026-05-03 20:44 54.06030 23.44570 16943 ft 371 kts 68°
2026-05-03 20:44 54.06761 23.48716 16435 ft 369 kts 76°
2026-05-03 20:45 54.07452 23.52907 15928 ft 366 kts 69°
2026-05-03 20:45 54.08430 23.56904 15425 ft 363 kts 64°
2026-05-03 20:45 54.09462 23.60757 15053 ft 358 kts 64°
2026-05-03 20:45 54.10485 23.64621 14967 ft 358 kts 64°
2026-05-03 20:46 54.11505 23.68503 14984 ft 359 kts 64°
2026-05-03 20:46 54.12525 23.72401 14780 ft 359 kts 64°
2026-05-03 20:46 54.13536 23.76292 14560 ft 357 kts 64°
2026-05-03 20:46 54.14541 23.80176 14439 ft 357 kts 65°
2026-05-03 20:47 54.15543 23.84058 14320 ft 356 kts 64°
2026-05-03 20:47 54.16532 23.87885 14201 ft 356 kts 64°
2026-05-03 20:47 54.17532 23.91746 14072 ft 355 kts 64°
2026-05-03 20:47 54.18534 23.95612 13968 ft 355 kts 64°
2026-05-03 20:48 54.19535 23.99481 13838 ft 354 kts 64°
2026-05-03 20:48 54.20513 24.03283 13717 ft 354 kts 65°
2026-05-03 20:48 54.21506 24.07142 13594 ft 353 kts 65°
2026-05-03 20:48 54.22492 24.10991 13447 ft 352 kts 65°
2026-05-03 20:49 54.23464 24.14798 13325 ft 351 kts 65°
2026-05-03 20:49 54.24440 24.18623 13211 ft 350 kts 65°
2026-05-03 20:49 54.25442 24.22425 13054 ft 349 kts 61°
2026-05-03 20:49 54.26699 24.25951 12925 ft 346 kts 52°
2026-05-03 20:50 54.28218 24.29054 12797 ft 343 kts 43°
2026-05-03 20:50 54.29995 24.31750 12670 ft 339 kts 34°
2026-05-03 20:50 54.31970 24.33945 12541 ft 336 kts 25°
2026-05-03 20:50 54.34084 24.35612 12409 ft 332 kts 17°
2026-05-03 20:51 54.36295 24.36729 12281 ft 329 kts
2026-05-03 20:51 54.38510 24.37585 12157 ft 328 kts
2026-05-03 20:51 54.40733 24.38455 12025 ft 328 kts
2026-05-03 20:51 54.42957 24.39332 11902 ft 327 kts
2026-05-03 20:52 54.45179 24.40214 11776 ft 327 kts
2026-05-03 20:52 54.47381 24.41091 11650 ft 326 kts
2026-05-03 20:52 54.49577 24.41969 11523 ft 325 kts
2026-05-03 20:52 54.51784 24.42852 11400 ft 325 kts
2026-05-03 20:53 54.53987 24.43732 11276 ft 324 kts 10°
2026-05-03 20:53 54.56114 24.44938 11143 ft 317 kts 20°
2026-05-03 20:53 54.58049 24.46647 11023 ft 308 kts 28°
2026-05-03 20:53 54.59768 24.48757 10902 ft 307 kts 37°
2026-05-03 20:54 54.61339 24.51342 10776 ft 308 kts 46°
2026-05-03 20:54 54.63961 24.57148 10527 ft 308 kts 51°
2026-05-03 20:54 54.65255 24.60093 10414 ft 307 kts 51°
2026-05-03 20:55 54.66547 24.63035 10288 ft 307 kts 51°
2026-05-03 20:55 54.67659 24.65573 10188 ft 306 kts 51°
2026-05-03 20:55 54.68943 24.68513 10065 ft 306 kts 51°
2026-05-03 20:55 54.70221 24.71454 9951 ft 305 kts 51°
2026-05-03 20:56 54.71496 24.74393 9923 ft 306 kts 51°
2026-05-03 20:56 54.72759 24.77295 9802 ft 305 kts 51°
2026-05-03 20:56 54.74038 24.80226 9488 ft 303 kts 51°
2026-05-03 20:56 54.75308 24.83136 9177 ft 302 kts 51°
2026-05-03 20:57 54.76574 24.86045 8869 ft 300 kts 51°
2026-05-03 20:57 54.77812 24.88893 8566 ft 299 kts 51°
2026-05-03 20:57 54.79066 24.91776 8253 ft 298 kts 51°
2026-05-03 20:57 54.80311 24.94650 7953 ft 297 kts 51°
2026-05-03 20:58 54.81546 24.97504 7659 ft 296 kts 51°
2026-05-03 20:58 54.82783 25.00357 7353 ft 295 kts 51°
2026-05-03 20:58 54.84011 25.03202 7068 ft 294 kts 51°
2026-05-03 20:58 54.85201 25.06042 6775 ft 294 kts 57°
2026-05-03 20:59 54.86019 25.09267 6485 ft 291 kts 75°
2026-05-03 20:59 54.86267 25.12734 6185 ft 287 kts 92°
2026-05-03 20:59 54.85971 25.16120 5880 ft 282 kts 105°
2026-05-03 20:59 54.85505 25.19425 5581 ft 280 kts 105°
2026-05-03 21:00 54.85048 25.22651 5277 ft 277 kts 105°
2026-05-03 21:00 54.84743 25.24841 5088 ft 275 kts 105°
2026-05-03 21:00 54.84104 25.28972 4961 ft 259 kts 108°
2026-05-03 21:00 54.83573 25.31952 4604 ft 258 kts 115°
2026-05-03 21:01 54.82664 25.34601 4265 ft 254 kts 133°
2026-05-03 21:01 54.81364 25.36597 3941 ft 244 kts 151°
2026-05-03 21:01 54.79856 25.37794 3610 ft 234 kts 168°
2026-05-03 21:01 54.78314 25.38167 3470 ft 217 kts 184°
2026-05-03 21:02 54.76888 25.37869 3242 ft 196 kts 198°
2026-05-03 21:02 54.75682 25.37114 3005 ft 179 kts 206°
2026-05-03 21:02 54.74548 25.36324 2781 ft 168 kts 206°
2026-05-03 21:02 54.73497 25.35591 2567 ft 163 kts 206°
2026-05-03 21:03 54.72451 25.34862 2358 ft 161 kts 206°
2026-05-03 21:03 54.71416 25.34140 2145 ft 159 kts 206°
2026-05-03 21:03 54.70399 25.33433 1940 ft 150 kts 206°
2026-05-03 21:03 54.69494 25.32806 1750 ft 134 kts 206°
2026-05-03 21:04 54.68650 25.32218 1573 ft 129 kts 206°
2026-05-03 21:04 54.67825 25.31643 1403 ft 127 kts 204°
2026-05-03 21:04 54.66998 25.31064 1227 ft 128 kts 203°
2026-05-03 21:04 54.66179 25.30483 1052 ft 129 kts 202°
2026-05-03 21:05 54.65345 25.29922 867 ft 129 kts 199°
2026-05-03 21:05 54.64513 25.29336 702 ft 129 kts 201°
2026-05-03 21:05 54.63732 25.28790 631 ft 108 kts 201°
2026-05-03 21:05 54.63189 25.28420 609 ft 59 kts 202°
2026-05-03 21:06 54.62989 25.28270 604 ft 19 kts 224°
2026-05-03 21:06 54.62989 25.28062 616 ft 12 kts 301°
2026-05-03 21:06 54.63061 25.28013 607 ft 12 kts 17°
2026-05-03 21:06 54.63144 25.28072 608 ft 14 kts 22°
2026-05-03 21:07 54.63243 25.28138 621 ft 16 kts 21°
2026-05-03 21:07 54.63346 25.28211 610 ft 14 kts 23°
2026-05-03 21:07 54.63417 25.28264 613 ft 10 kts 24°
2026-05-03 21:07 54.63487 25.28316 615 ft 12 kts 22°
2026-05-03 21:08 54.63567 25.28370 618 ft 12 kts 14°
2026-05-03 21:08 54.63648 25.28349 629 ft 12 kts 345°
2026-05-03 21:08 54.63728 25.28317 625 ft 11 kts 347°
2026-05-03 21:08 54.63802 25.28289 627 ft 10 kts 348°
2026-05-03 21:09 54.63868 25.28264 634 ft 9 kts 347°
2026-05-03 21:09 54.63930 25.28239 639 ft 9 kts 347°
2026-05-03 21:09 54.63995 25.28214 636 ft 10 kts 347°
2026-05-03 21:09 54.64070 25.28186 641 ft 12 kts 348°
2026-05-03 21:10 54.64162 25.28145 641 ft 14 kts 340°
2026-05-03 21:10 54.64220 25.28119 638 ft 6 kts 358°
2026-05-03 21:10 54.64239 25.28118 641 ft 2 kts 359°
2026-05-03 21:10 54.64244 25.28118 642 ft 0 kts 360°